Torna al catalogo

COSMOS 2579

AttivoNavigazioneSSO
NORAD 61730·PAYLOAD·🇷🇺 Russia

Lanciato Oct 31, 2024 da Plesetsk Cosmodrome

Loading…

Prossimi Passaggi (prossime 24 ore)

TLE

AggiornatoSource: Space-Track

Epoca: Sep 14, 2026, 15:06 UTC

1 61730U 24197A   26257.62932914  .00002898  00000-0  11771-3 0  9995
2 61730  97.5565 182.4693 0003116  81.2619 278.8971 15.25407078104104

Traccia COSMOS 2579 in tempo reale con AllMySat

Download on the App Store